GW3424 Weather Reports


Display with metric or nautical units.
time (UTC)temp
F
wind
direction
speed
MPH
gust
MPH
rain 1hr
in
rain 24hr
in
rain mn
in
humidity
%
barometer
mb
20260503013042 90 360 4.0 8.0 0.00 0.00 0.00 16 972.7
20260503012545 90 360 3.0 9.0 0.00 0.00 0.00 16 972.8
20260503012043 90 360 6.0 10.0 0.00 0.00 0.00 16 972.9
20260503011548 90 360 6.0 10.0 0.00 0.00 0.00 16 972.8
20260503011041 91 360 4.0 11.0 0.00 0.00 0.00 15 972.8
20260503010541 91 360 7.0 11.0 0.00 0.00 0.00 15 972.8
20260503010051 91 360 5.0 10.0 0.00 0.00 0.00 15 972.9
20260503005541 91 360 6.0 11.0 0.00 0.00 0.00 15 972.9
20260503005042 91 360 6.0 11.0 0.00 0.00 0.00 15 972.9
20260503004555 91 360 4.0 11.0 0.00 0.00 0.00 15 972.9
20260503004041 91 10 6.0 13.0 0.00 0.00 0.00 15 972.9
20260503003542 91 360 7.0 13.0 0.00 0.00 0.00 15 973.0
20260503003042 91 10 9.0 13.0 0.00 0.00 0.00 15 972.9
20260503002541 91 40 3.0 12.0 0.00 0.00 0.00 15 972.9
20260503002042 91 360 5.0 15.0 0.00 0.00 0.00 15 972.9
20260503001541 91 360 4.0 13.0 0.00 0.00 0.00 15 973.1
20260503001041 91 360 9.0 13.0 0.00 0.00 0.00 15 973.1
20260503000542 91 360 9.0 14.0 0.00 0.00 0.00 15 973.1
20260503000042 91 360 11.0 16.0 0.00 0.00 0.00 15 973.0
20260502235541 92 360 7.0 16.0 0.00 0.00 0.00 14 972.9
20260502235041 92 360 7.0 15.0 0.00 0.00 0.00 14 973.1
20260502234545 92 360 8.0 12.0 0.00 0.00 0.00 15 973.0
20260502234043 92 360 5.0 14.0 0.00 0.00 0.00 15 973.0
20260502233542 92 360 8.0 12.0 0.00 0.00 0.00 15 973.1
20260502233045 91 360 4.0 12.0 0.00 0.00 0.00 15 973.0
20260502232541 91 360 7.0 12.0 0.00 0.00 0.00 15 972.9
20260502232041 91 360 5.0 17.0 0.00 0.00 0.00 15 973.0
20260502231542 91 360 8.0 17.0 0.00 0.00 0.00 15 973.0
20260502231042 92 360 7.0 16.0 0.00 0.00 0.00 15 973.1
20260502230542 92 360 10.0 16.0 0.00 0.00 0.00 14 973.3
20260502230042 93 360 6.0 13.0 0.00 0.00 0.00 14 973.4
20260502225541 93 360 5.0 13.0 0.00 0.00 0.00 14 973.3
20260502225041 92 360 7.0 13.0 0.00 0.00 0.00 15 973.2
20260502224544 92 360 3.0 13.0 0.00 0.00 0.00 15 973.3
20260502224041 92 360 6.0 20.0 0.00 0.00 0.00 15 973.5
20260502223541 91 360 14.0 21.0 0.00 0.00 0.00 15 973.7
20260502223043 92 360 13.0 21.0 0.00 0.00 0.00 15 973.6
20260502222542 92 360 7.0 18.0 0.00 0.00 0.00 15 973.7
20260502222041 92 360 11.0 18.0 0.00 0.00 0.00 15 973.8
20260502221542 92 360 2.0 6.0 0.00 0.00 0.00 15 973.9
20260502221041 92 360 3.0 16.0 0.00 0.00 0.00 15 974.0
20260502220545 91 360 8.0 16.0 0.00 0.00 0.00 15 974.0
20260502220043 92 360 10.0 15.0 0.00 0.00 0.00 15 974.1
20260502215542 91 360 8.0 15.0 0.00 0.00 0.00 15 974.2
20260502215045 91 360 8.0 18.0 0.00 0.00 0.00 16 974.3
20260502214541 91 360 12.0 17.0 0.00 0.00 0.00 15 974.4
20260502214041 91 360 11.0 16.0 0.00 0.00 0.00 15 974.6
20260502213541 92 360 4.0 17.0 0.00 0.00 0.00 15 974.6
20260502213042 92 360 5.0 20.0 0.00 0.00 0.00 15 974.7
20260502212541 93 360 6.0 20.0 0.00 0.00 0.00 15 974.8
20260502212045 94 360 5.0 16.0 0.00 0.00 0.00 14 974.6
20260502211553 93 360 0.0 10.0 0.00 0.00 0.00 15 974.8
20260502211042 92 360 4.0 10.0 0.00 0.00 0.00 15 974.9
20260502210541 93 360 2.0 13.0 0.00 0.00 0.00 15 975.1
20260502210042 92 360 8.0 12.0 0.00 0.00 0.00 15 975.1
20260502205541 92 360 4.0 14.0 0.00 0.00 0.00 16 975.1
20260502205041 92 360 4.0 13.0 0.00 0.00 0.00 16 975.1
20260502204542 92 360 3.0 16.0 0.00 0.00 0.00 15 975.2
20260502204044 91 360 10.0 20.0 0.00 0.00 0.00 16 975.4
20260502203541 91 360 11.0 20.0 0.00 0.00 0.00 15 975.4
20260502203041 91 360 11.0 16.0 0.00 0.00 0.00 16 975.5
20260502202541 90 360 3.0 15.0 0.00 0.00 0.00 17 975.4
20260502202041 91 360 7.0 21.0 0.00 0.00 0.00 16 975.7
20260502201542 91 360 6.0 21.0 0.00 0.00 0.00 17 975.8
20260502201045 90 360 2.0 13.0 0.00 0.00 0.00 17 975.8
20260502200544 90 360 7.0 17.0 0.00 0.00 0.00 17 975.7
20260502200042 90 360 12.0 17.0 0.00 0.00 0.00 19 975.8
20260502195542 89 360 8.0 18.0 0.00 0.00 0.00 20 976.1
20260502195041 89 360 11.0 18.0 0.00 0.00 0.00 18 976.1
20260502194544 89 360 9.0 17.0 0.00 0.00 0.00 19 976.2
20260502194041 89 360 11.0 17.0 0.00 0.00 0.00 17 976.3
20260502193547 89 360 5.0 20.0 0.00 0.00 0.00 19 976.2
20260502193042 89 360 14.0 20.0 0.00 0.00 0.00 19 976.5
20260502192542 88 360 10.0 15.0 0.00 0.00 0.00 21 976.5
20260502192041 88 360 10.0 18.0 0.00 0.00 0.00 20 976.7
20260502191546 88 360 7.0 22.0 0.00 0.00 0.00 21 976.5
20260502191041 88 360 14.0 22.0 0.00 0.00 0.00 21 976.8
20260502190542 89 360 11.0 20.0 0.00 0.00 0.00 22 976.7
20260502190044 89 360 14.0 23.0 0.00 0.00 0.00 22 976.8
20260502185541 88 360 14.0 23.0 0.00 0.00 0.00 22 977.0
20260502185041 88 360 11.0 19.0 0.00 0.00 0.00 24 977.1
20260502184551 88 360 14.0 19.0 0.00 0.00 0.00 23 977.0
20260502184041 88 360 10.0 28.0 0.00 0.00 0.00 23 977.1
20260502183541 88 360 13.0 28.0 0.00 0.00 0.00 23 977.3
20260502183053 87 360 14.0 21.0 0.00 0.00 0.00 24 977.4
20260502182541 87 360 11.0 25.0 0.00 0.00 0.00 25 977.4
20260502182041 87 360 15.0 25.0 0.00 0.00 0.00 25 977.5
20260502181544 86 360 14.0 23.0 0.00 0.00 0.00 26 977.5
20260502181041 86 360 17.0 24.0 0.00 0.00 0.00 25 977.7
20260502180544 87 360 17.0 24.0 0.00 0.00 0.00 26 977.7
20260502164041 81 360 14.0 24.0 0.00 0.00 0.00 30 978.2
20260502163545 82 360 18.0 29.0 0.00 0.00 0.00 30 978.1
20260502163049 81 360 19.0 29.0 0.00 0.00 0.00 30 978.1
20260502162542 81 360 15.0 27.0 0.00 0.00 0.00 31 978.1
20260502162041 81 360 17.0 27.0 0.00 0.00 0.00 31 978.1
20260502161543 81 360 18.0 25.0 0.00 0.00 0.00 31 978.1
20260502161041 81 360 18.0 25.0 0.00 0.00 0.00 31 978.0
20260502160541 81 360 19.0 25.0 0.00 0.00 0.00 31 978.0
20260502152041 79 360 13.0 18.0 0.00 0.00 0.00 32 977.7
20260502151553 79 360 14.0 18.0 0.00 0.00 0.00 31 977.7
20260502151041 78 360 12.0 17.0 0.00 0.00 0.00 32 977.8
20260502150543 78 360 10.0 19.0 0.00 0.00 0.00 32 977.6
20260502130543 68 360 3.0 5.0 0.00 0.00 0.00 29 976.3
20260502123545 70 360 5.0 9.0 0.00 0.00 0.00 28 975.8
20260502123043 69 360 3.0 9.0 0.00 0.00 0.00 29 975.7
20260502122544 68 360 3.0 6.0 0.00 0.00 0.00 30 975.8
20260502122041 67 360 4.0 8.0 0.00 0.00 0.00 30 975.7
20260502121541 67 360 4.0 6.0 0.00 0.00 0.00 31 975.6
20260502121044 66 360 4.0 8.0 0.00 0.00 0.00 31 975.6
20260502120541 66 360 5.0 10.0 0.00 0.00 0.00 31 975.7
20260502115545 67 360 6.0 10.0 0.00 0.00 0.00 30 975.7
20260502115041 67 360 7.0 10.0 0.00 0.00 0.00 30 975.7
20260502114554 69 360 7.0 9.0 0.00 0.00 0.00 30 975.7
20260502114041 70 360 5.0 8.0 0.00 0.00 0.00 29 975.6
20260502113545 70 360 4.0 9.0 0.00 0.00 0.00 28 975.6
20260502113044 69 360 6.0 9.0 0.00 0.00 0.00 29 975.6
20260502112541 66 360 5.0 9.0 0.00 0.00 0.00 31 975.6
20260502112041 64 360 4.0 8.0 0.00 0.00 0.00 33 975.5
20260502111547 63 360 3.0 9.0 0.00 0.00 0.00 34 975.4
20260502111041 63 360 5.0 9.0 0.00 0.00 0.00 35 975.4
20260502110541 62 360 4.0 8.0 0.00 0.00 0.00 35 975.3
20260502110041 62 360 5.0 9.0 0.00 0.00 0.00 35 975.3
20260502105543 62 360 6.0 9.0 0.00 0.00 0.00 34 975.2
20260502105042 62 360 5.0 10.0 0.00 0.00 0.00 34 975.2
20260502104549 62 360 5.0 9.0 0.00 0.00 0.00 34 975.3
20260502104041 63 360 7.0 11.0 0.00 0.00 0.00 34 975.4
20260502103541 64 360 5.0 11.0 0.00 0.00 0.00 33 975.3
20260502103041 67 360 8.0 10.0 0.00 0.00 0.00 31 975.3
20260502102542 69 360 6.0 8.0 0.00 0.00 0.00 28 975.4
20260502102042 69 360 3.0 4.0 0.00 0.00 0.00 29 975.2
20260502101609 68 360 2.0 3.0 0.00 0.00 0.00 29 975.2
20260502101041 68 360 1.0 5.0 0.00 0.00 0.00 29 975.2
20260502100544 69 360 2.0 6.0 0.00 0.00 0.00 28 975.2
20260502091041 74 360 0.0 3.0 0.00 0.00 0.00 25 974.7
20260502090541 75 360 1.0 3.0 0.00 0.00 0.00 25 974.7
20260502071041 82 360 7.0 10.0 0.00 0.00 0.00 16 974.0
20260502070541 83 360 3.0 10.0 0.00 0.00 0.00 18 973.9
20260502070055 83 360 5.0 10.0 0.00 0.00 0.00 16 973.8
20260502065541 84 360 6.0 13.0 0.00 0.00 0.00 15 973.9
20260502065041 84 360 8.0 13.0 0.00 0.00 0.00 15 974.0
20260502064545 84 360 8.0 13.0 0.00 0.00 0.00 15 973.9
20260502064041 84 360 9.0 14.0 0.00 0.00 0.00 15 973.9
20260502063541 85 360 9.0 15.0 0.00 0.00 0.00 15 973.8
20260502063041 85 360 7.0 15.0 0.00 0.00 0.00 15 973.8
20260502062545 85 360 9.0 14.0 0.00 0.00 0.00 15 973.9
20260502062042 85 360 9.0 18.0 0.00 0.00 0.00 15 973.8
20260502061543 85 360 10.0 18.0 0.00 0.00 0.00 15 973.8
20260502061041 86 360 9.0 18.0 0.00 0.00 0.00 15 973.8
20260502060541 86 360 9.0 16.0 0.00 0.00 0.00 15 973.7
20260502060041 86 360 8.0 17.0 0.00 0.00 0.00 15 973.7
20260502055543 86 360 9.0 19.0 0.00 0.00 0.00 15 973.7
20260502055041 86 360 10.0 23.0 0.00 0.00 0.00 15 973.7
20260502054543 86 360 7.0 16.0 0.00 0.00 0.00 15 973.7
20260502054041 86 360 8.0 16.0 0.00 0.00 0.00 15 973.6
20260502053541 86 360 8.0 16.0 0.00 0.00 0.00 15 973.7
20260502053043 86 360 9.0 19.0 0.00 0.00 0.00 15 973.5
20260502052541 85 360 9.0 19.0 0.00 0.00 0.00 15 973.6
20260502052044 85 360 6.0 16.0 0.00 0.00 0.00 16 973.7
20260502051601 83 360 8.0 16.0 0.00 0.00 0.00 16 973.7
20260502051041 81 360 6.0 10.0 0.00 0.00 0.00 18 973.7
20260502050541 80 360 0.0 3.0 0.00 0.00 0.00 20 973.6
20260502050041 81 360 0.0 3.0 0.00 0.00 0.00 21 973.5
20260502045540 81 360 1.0 3.0 0.00 0.00 0.00 19 973.3
20260502045041 81 360 0.0 0.0 0.00 0.00 0.00 18 973.4
20260502044545 82 360 0.0 3.0 0.00 0.00 0.00 22 973.3
20260502044041 82 360 1.0 5.0 0.00 0.00 0.00 19 973.5
20260502043541 83 360 0.0 5.0 0.00 0.00 0.00 17 973.4
20260502043041 84 360 0.0 3.0 0.00 0.00 0.00 18 973.3
20260502042541 84 360 0.0 3.0 0.00 0.00 0.00 17 973.1
20260502042041 85 360 1.0 3.0 0.00 0.00 0.00 16 973.1
20260502041542 85 360 2.0 3.0 0.00 0.00 0.00 15 973.1
20260502041041 85 360 1.0 4.0 0.00 0.00 0.00 15 973.1
20260502040541 85 360 2.0 4.0 0.00 0.00 0.00 15 973.0
20260502040052 86 360 1.0 5.0 0.00 0.00 0.00 15 973.2
20260502035541 86 360 2.0 5.0 0.00 0.00 0.00 14 973.0
20260502035041 86 360 1.0 5.0 0.00 0.00 0.00 14 972.8
20260502034541 86 360 2.0 5.0 0.00 0.00 0.00 14 972.8
20260502034043 86 360 2.0 6.0 0.00 0.00 0.00 14 972.8
20260502033541 86 360 0.0 6.0 0.00 0.00 0.00 14 972.8
20260502033043 86 360 3.0 6.0 0.00 0.00 0.00 14 972.7
20260502032541 86 360 2.0 5.0 0.00 0.00 0.00 14 972.7
20260502032043 86 360 2.0 5.0 0.00 0.00 0.00 14 972.6
20260502031542 86 360 1.0 5.0 0.00 0.00 0.00 14 972.6
20260502031041 86 360 3.0 6.0 0.00 0.00 0.00 13 972.6
20260502030540 86 360 3.0 6.0 0.00 0.00 0.00 14 972.5
20260502030041 86 360 2.0 5.0 0.00 0.00 0.00 14 972.4
20260502025541 87 360 2.0 5.0 0.00 0.00 0.00 14 972.4
20260502025043 87 360 2.0 9.0 0.00 0.00 0.00 14 972.3
20260502024542 87 360 3.0 9.0 0.00 0.00 0.00 14 972.3
20260502024041 87 360 5.0 9.0 0.00 0.00 0.00 15 972.2
20260502023544 87 360 3.0 6.0 0.00 0.00 0.00 15 972.3
20260502023055 87 360 1.0 9.0 0.00 0.00 0.00 14 972.2
20260502022542 87 360 2.0 9.0 0.00 0.00 0.00 14 972.2
20260502022045 87 360 5.0 11.0 0.00 0.00 0.00 14 972.2
20260502021541 88 360 5.0 11.0 0.00 0.00 0.00 14 972.1
20260502021044 88 360 3.0 10.0 0.00 0.00 0.00 14 972.1
20260502020541 88 360 7.0 10.0 0.00 0.00 0.00 14 972.1
20260502020058 88 360 6.0 10.0 0.00 0.00 0.00 13 971.9
20260502015540 88 360 6.0 10.0 0.00 0.00 0.00 14 971.9
20260502015040 88 360 4.0 11.0 0.00 0.00 0.00 14 971.9
20260502014544 88 360 6.0 11.0 0.00 0.00 0.00 14 971.9
20260502014041 88 360 3.0 9.0 0.00 0.00 0.00 15 971.8
20260502013541 88 360 3.0 9.0 0.00 0.00 0.00 15 971.8